Voltar ao catálogo

COSMOS 2251 DEB

AtivoLEO
NORAD 33844·DEBRIS·🇷🇺 Russia

Lançado Jun 16, 1993 de Plesetsk Cosmodrome

Loading…

Próximas Passagens (próximas 24 horas)

TLE

AtualizadoSource: Space-Track

Época: Sep 14, 2026, 01:01 UTC

1 33844U 93036CM  26257.04267622  .00000546  00000-0  20121-3 0  9998
2 33844  74.0636 269.8930 0049406 225.9226 154.5541 14.34265823916726

Acompanhe COSMOS 2251 DEB em tempo real com AllMySat

Download on the App Store